Time,TemperatureF,DewpointF,PressureIn,WindDirection,WindDirectionDegrees,WindSpeedMPH,WindSpeedGustMPH,Humidity,HourlyPrecipIn,Conditions,Clouds,dailyrainin,SolarRadiationWatts/m^2,SoftwareType,DateUTC
2013-04-10 00:00:00,69.7,58.7,30.04,South,179,0.0,6.0,68,0.00,,,0.00,0,Wunderground v.1.15,2013-04-10 04:00:00,
2013-04-10 00:05:00,69.5,58.9,30.05,South,173,1.0,6.0,69,0.00,,,0.00,0,Wunderground v.1.15,2013-04-10 04:05:00,
2013-04-10 00:15:00,69.3,59.1,30.04,SSE,167,1.0,6.0,70,0.00,,,0.00,0,Wunderground v.1.15,2013-04-10 04:15:00,
2013-04-10 00:20:00,69.2,59.0,30.04,South,171,0.0,6.0,70,0.00,,,0.00,0,Wunderground v.1.15,2013-04-10 04:20:00,
2013-04-10 00:25:00,69.1,58.9,30.04,South,178,0.0,6.0,70,0.00,,,0.00,0,Wunderground v.1.15,2013-04-10 04:25:00,
2013-04-10 00:30:00,69.0,58.8,30.04,SSE,166,0.0,6.0,70,0.00,,,0.00,0,Wunderground v.1.15,2013-04-10 04:30:00,
2013-04-10 00:35:00,68.8,58.6,30.04,SSE,163,0.0,6.0,70,0.00,,,0.00,0,Wunderground v.1.15,2013-04-10 04:35:00,
2013-04-10 00:40:00,68.6,58.8,30.04,SSE,161,1.0,1.0,71,0.00,,,0.00,0,Wunderground v.1.15,2013-04-10 04:40:00,
2013-04-10 00:45:00,68.5,58.7,30.03,SSE,153,1.0,6.0,71,0.00,,,0.00,0,Wunderground v.1.15,2013-04-10 04:45:00,
2013-04-10 00:50:00,68.3,58.5,30.03,SSE,153,0.0,6.0,71,0.00,,,0.00,0,Wunderground v.1.15,2013-04-10 04:50:00,
2013-04-10 00:55:00,67.9,58.5,30.04,SSE,153,0.0,6.0,72,0.00,,,0.00,0,Wunderground v.1.15,2013-04-10 04:55:00,
2013-04-10 01:05:00,66.4,58.2,30.04,SSE,153,0.0,6.0,75,0.00,,,0.00,0,Wunderground v.1.15,2013-04-10 05:05:00,
2013-04-10 01:10:00,65.8,58.0,30.03,SSE,153,0.0,6.0,76,0.00,,,0.00,0,Wunderground v.1.15,2013-04-10 05:10:00,
2013-04-10 01:15:00,65.3,57.9,30.03,SSE,153,0.0,6.0,77,0.00,,,0.00,0,Wunderground v.1.15,2013-04-10 05:15:00,
2013-04-10 01:20:00,65.0,58.0,30.03,SSE,153,0.0,6.0,78,0.00,,,0.00,0,Wunderground v.1.15,2013-04-10 05:20:00,
2013-04-10 01:25:00,64.7,57.7,30.03,SSE,153,0.0,6.0,78,0.00,,,0.00,0,Wunderground v.1.15,2013-04-10 05:25:00,
2013-04-10 01:30:00,64.6,57.9,30.03,SSE,153,0.0,6.0,79,0.00,,,0.00,0,Wunderground v.1.15,2013-04-10 05:30:00,
2013-04-10 01:40:00,65.5,58.1,30.02,SSE,157,0.0,6.0,77,0.00,,,0.00,0,Wunderground v.1.15,2013-04-10 05:40:00,
2013-04-10 01:45:00,66.0,58.6,30.02,SSE,158,0.0,6.0,77,0.00,,,0.00,0,Wunderground v.1.15,2013-04-10 05:45:00,
2013-04-10 01:50:00,66.4,58.6,30.03,SSE,157,0.0,6.0,76,0.00,,,0.00,0,Wunderground v.1.15,2013-04-10 05:50:00,
2013-04-10 01:55:00,66.4,58.6,30.02,SSE,158,0.0,6.0,76,0.00,,,0.00,0,Wunderground v.1.15,2013-04-10 05:55:00,
2013-04-10 02:00:00,66.4,58.6,30.02,SSE,158,0.0,6.0,76,0.00,,,0.00,0,Wunderground v.1.15,2013-04-10 06:00:00,
2013-04-10 02:10:00,66.2,58.4,30.02,SSE,158,0.0,6.0,76,0.00,,,0.00,0,Wunderground v.1.15,2013-04-10 06:10:00,
2013-04-10 02:15:00,66.2,58.4,30.01,SSE,157,0.0,6.0,76,0.00,,,0.00,0,Wunderground v.1.15,2013-04-10 06:15:00,
2013-04-10 02:20:00,66.1,58.3,30.02,SSE,157,0.0,6.0,76,0.00,,,0.00,0,Wunderground v.1.15,2013-04-10 06:20:00,
2013-04-10 02:25:00,66.1,58.3,30.01,South,180,1.0,6.0,76,0.00,,,0.00,0,Wunderground v.1.15,2013-04-10 06:25:00,
2013-04-10 02:30:00,66.2,58.4,30.02,South,180,1.0,1.0,76,0.00,,,0.00,0,Wunderground v.1.15,2013-04-10 06:30:00,
2013-04-10 02:35:00,66.2,58.4,30.02,South,180,1.0,6.0,76,0.00,,,0.00,0,Wunderground v.1.15,2013-04-10 06:35:00,
2013-04-10 02:40:00,66.2,58.4,30.02,SSW,194,0.0,6.0,76,0.00,,,0.00,0,Wunderground v.1.15,2013-04-10 06:40:00,
2013-04-10 02:45:00,66.1,58.7,30.02,South,186,1.0,6.0,77,0.00,,,0.00,0,Wunderground v.1.15,2013-04-10 06:45:00,
2013-04-10 02:50:00,66.0,58.6,30.02,South,186,0.0,6.0,77,0.00,,,0.00,0,Wunderground v.1.15,2013-04-10 06:50:00,
2013-04-10 03:00:00,65.8,58.4,30.01,South,180,0.0,6.0,77,0.00,,,0.00,0,Wunderground v.1.15,2013-04-10 07:00:00,
2013-04-10 03:05:00,65.7,58.7,30.01,South,175,0.0,6.0,78,0.00,,,0.00,0,Wunderground v.1.15,2013-04-10 07:05:00,
2013-04-10 03:10:00,65.8,58.7,30.02,South,188,0.0,6.0,78,0.00,,,0.00,0,Wunderground v.1.15,2013-04-10 07:10:00,
2013-04-10 03:15:00,65.8,58.7,30.02,South,188,0.0,6.0,78,0.00,,,0.00,0,Wunderground v.1.15,2013-04-10 07:15:00,
2013-04-10 03:25:00,65.8,58.7,30.01,SW,220,2.0,6.0,78,0.00,,,0.00,0,Wunderground v.1.15,2013-04-10 07:25:00,
2013-04-10 03:30:00,65.8,58.7,30.02,South,178,2.0,6.0,78,0.00,,,0.00,0,Wunderground v.1.15,2013-04-10 07:30:00,
2013-04-10 03:35:00,65.8,59.1,30.02,South,185,3.0,6.0,79,0.00,,,0.00,0,Wunderground v.1.15,2013-04-10 07:35:00,
2013-04-10 03:45:00,65.8,58.7,30.02,South,181,2.0,6.0,78,0.00,,,0.00,0,Wunderground v.1.15,2013-04-10 07:45:00,
2013-04-10 03:50:00,65.9,58.8,30.02,SSW,205,3.0,3.0,78,0.00,,,0.00,0,Wunderground v.1.15,2013-04-10 07:50:00,
2013-04-10 03:55:00,66.1,59.0,30.02,South,187,2.0,5.0,78,0.00,,,0.00,0,Wunderground v.1.15,2013-04-10 07:55:00,
2013-04-10 04:00:00,66.3,59.2,30.02,SSW,204,3.0,3.0,78,0.00,,,0.00,0,Wunderground v.1.15,2013-04-10 08:00:00,
2013-04-10 04:05:00,66.3,58.9,30.02,SSW,201,3.0,6.0,77,0.00,,,0.00,0,Wunderground v.1.15,2013-04-10 08:05:00,
2013-04-10 04:10:00,66.4,59.0,30.02,SSW,205,3.0,8.0,77,0.00,,,0.00,0,Wunderground v.1.15,2013-04-10 08:10:00,
2013-04-10 04:15:00,66.5,59.1,30.02,SW,217,3.0,8.0,77,0.00,,,0.00,0,Wunderground v.1.15,2013-04-10 08:15:00,
2013-04-10 04:20:00,66.3,58.9,30.01,SW,236,3.0,3.0,77,0.00,,,0.00,0,Wunderground v.1.15,2013-04-10 08:20:00,
2013-04-10 04:25:00,66.4,59.0,30.02,SW,214,4.0,8.0,77,0.00,,,0.00,0,Wunderground v.1.15,2013-04-10 08:25:00,
2013-04-10 04:30:00,66.5,59.1,30.02,South,190,5.0,6.0,77,0.00,,,0.00,0,Wunderground v.1.15,2013-04-10 08:30:00,
2013-04-10 04:35:00,66.4,59.0,30.02,SSW,207,5.0,6.0,77,0.00,,,0.00,0,Wunderground v.1.15,2013-04-10 08:35:00,
2013-04-10 04:40:00,66.3,58.9,30.02,South,178,5.0,7.0,77,0.00,,,0.00,0,Wunderground v.1.15,2013-04-10 08:40:00,
2013-04-10 04:50:00,66.3,59.2,30.02,SSW,213,4.0,6.0,78,0.00,,,0.00,0,Wunderground v.1.15,2013-04-10 08:50:00,
2013-04-10 04:55:00,66.5,59.1,30.02,SW,215,4.0,6.0,77,0.00,,,0.00,0,Wunderground v.1.15,2013-04-10 08:55:00,
2013-04-10 05:00:00,66.5,59.1,30.03,SSW,204,5.0,7.0,77,0.00,,,0.00,0,Wunderground v.1.15,2013-04-10 09:00:00,
2013-04-10 05:05:00,66.4,59.0,30.02,SSW,194,5.0,9.0,77,0.00,,,0.00,0,Wunderground v.1.15,2013-04-10 09:05:00,
2013-04-10 05:10:00,66.4,59.0,30.02,SSW,210,5.0,5.0,77,0.00,,,0.00,0,Wunderground v.1.15,2013-04-10 09:10:00,
2013-04-10 05:15:00,66.3,59.2,30.02,South,173,5.0,6.0,78,0.00,,,0.00,0,Wunderground v.1.15,2013-04-10 09:15:00,
2013-04-10 05:20:00,66.2,59.1,30.02,SSW,203,3.0,3.0,78,0.00,,,0.00,0,Wunderground v.1.15,2013-04-10 09:20:00,
2013-04-10 05:25:00,66.1,59.0,30.02,SSW,202,3.0,8.0,78,0.00,,,0.00,0,Wunderground v.1.15,2013-04-10 09:25:00,
2013-04-10 05:30:00,66.3,59.2,30.03,South,189,4.0,6.0,78,0.00,,,0.00,0,Wunderground v.1.15,2013-04-10 09:30:00,
2013-04-10 05:40:00,66.4,59.0,30.03,SW,221,0.0,6.0,77,0.00,,,0.00,0,Wunderground v.1.15,2013-04-10 09:40:00,
2013-04-10 05:50:00,66.2,59.1,30.03,SW,216,1.0,1.0,78,0.00,,,0.00,0,Wunderground v.1.15,2013-04-10 09:50:00,
2013-04-10 05:55:00,66.1,59.0,30.03,SW,231,1.0,6.0,78,0.00,,,0.00,0,Wunderground v.1.15,2013-04-10 09:55:00,
2013-04-10 06:00:00,66.1,59.0,30.03,SW,234,0.0,6.0,78,0.00,,,0.00,0,Wunderground v.1.15,2013-04-10 10:00:00,
2013-04-10 06:05:00,66.1,59.0,30.03,SSW,199,0.0,6.0,78,0.00,,,0.00,0,Wunderground v.1.15,2013-04-10 10:05:00,
2013-04-10 06:10:00,66.1,59.0,30.03,WSW,246,0.0,8.0,78,0.00,,,0.00,0,Wunderground v.1.15,2013-04-10 10:10:00,
2013-04-10 06:15:00,66.3,59.2,30.03,SSW,208,1.0,8.0,78,0.00,,,0.00,0,Wunderground v.1.15,2013-04-10 10:15:00,
2013-04-10 06:20:00,66.3,59.2,30.03,SSW,193,2.0,6.0,78,0.00,,,0.00,0,Wunderground v.1.15,2013-04-10 10:20:00,
2013-04-10 06:25:00,66.3,58.9,30.03,SSW,192,3.0,6.0,77,0.00,,,0.00,0,Wunderground v.1.15,2013-04-10 10:25:00,
2013-04-10 06:35:00,66.1,59.0,30.03,SSW,205,3.0,6.0,78,0.00,,,0.00,0,Wunderground v.1.15,2013-04-10 10:35:00,
2013-04-10 06:40:00,65.9,58.8,30.03,SSW,200,3.0,6.0,78,0.00,,,0.00,0,Wunderground v.1.15,2013-04-10 10:40:00,
2013-04-10 06:50:00,65.6,58.9,30.03,SSW,198,2.0,2.0,79,0.00,,,0.00,0,Wunderground v.1.15,2013-04-10 10:50:00,
2013-04-10 06:55:00,65.6,58.9,30.03,SSW,205,1.0,6.0,79,0.00,,,0.00,5,Wunderground v.1.15,2013-04-10 10:55:00,
2013-04-10 07:00:00,65.6,58.9,30.04,SSW,194,2.0,2.0,79,0.00,,,0.00,7,Wunderground v.1.15,2013-04-10 11:00:00,
2013-04-10 07:05:00,65.4,58.7,30.04,South,187,1.0,6.0,79,0.00,,,0.00,11,Wunderground v.1.15,2013-04-10 11:05:00,
2013-04-10 07:10:00,65.2,58.9,30.04,SSW,205,2.0,2.0,80,0.00,,,0.00,14,Wunderground v.1.15,2013-04-10 11:10:00,
2013-04-10 07:20:00,64.9,58.6,30.04,SSW,200,2.0,2.0,80,0.00,,,0.00,14,Wunderground v.1.15,2013-04-10 11:20:00,
2013-04-10 07:25:00,64.9,58.9,30.04,South,186,1.0,6.0,81,0.00,,,0.00,16,Wunderground v.1.15,2013-04-10 11:25:00,
2013-04-10 07:35:00,64.9,58.9,30.04,South,184,0.0,6.0,81,0.00,,,0.00,23,Wunderground v.1.15,2013-04-10 11:35:00,
2013-04-10 07:40:00,64.8,58.8,30.04,SSW,209,0.0,6.0,81,0.00,,,0.00,26,Wunderground v.1.15,2013-04-10 11:40:00,
2013-04-10 07:45:00,64.7,58.7,30.04,SSW,210,0.0,6.0,81,0.00,,,0.00,30,Wunderground v.1.15,2013-04-10 11:45:00,
2013-04-10 07:55:00,64.6,58.6,30.04,SW,215,0.0,6.0,81,0.00,,,0.00,44,Wunderground v.1.15,2013-04-10 11:55:00,
2013-04-10 08:00:00,64.6,58.6,30.04,SW,215,0.0,6.0,81,0.00,,,0.00,33,Wunderground v.1.15,2013-04-10 12:00:00,
2013-04-10 08:05:00,64.7,59.1,30.04,SW,215,0.0,6.0,82,0.00,,,0.00,46,Wunderground v.1.15,2013-04-10 12:05:00,
2013-04-10 08:10:00,64.7,59.1,30.05,SW,215,0.0,6.0,82,0.00,,,0.00,40,Wunderground v.1.15,2013-04-10 12:10:00,
2013-04-10 08:15:00,64.7,59.1,30.05,SW,215,0.0,6.0,82,0.00,,,0.00,42,Wunderground v.1.15,2013-04-10 12:15:00,
2013-04-10 08:20:00,64.9,59.3,30.05,SW,215,0.0,6.0,82,0.00,,,0.00,47,Wunderground v.1.15,2013-04-10 12:20:00,
2013-04-10 08:25:00,65.1,59.5,30.05,SE,146,0.0,6.0,82,0.00,,,0.00,44,Wunderground v.1.15,2013-04-10 12:25:00,
2013-04-10 08:30:00,65.2,59.2,30.06,SE,146,0.0,6.0,81,0.00,,,0.00,42,Wunderground v.1.15,2013-04-10 12:30:00,
2013-04-10 08:40:00,65.4,59.4,30.06,SE,146,0.0,6.0,81,0.00,,,0.00,46,Wunderground v.1.15,2013-04-10 12:40:00,
2013-04-10 08:45:00,65.6,59.6,30.05,West,276,0.0,6.0,81,0.00,,,0.00,56,Wunderground v.1.15,2013-04-10 12:45:00,
2013-04-10 08:50:00,66.0,59.7,30.05,West,266,0.0,6.0,80,0.00,,,0.00,47,Wunderground v.1.15,2013-04-10 12:50:00,
2013-04-10 08:55:00,66.3,59.6,30.05,West,261,0.0,6.0,79,0.00,,,0.00,63,Wunderground v.1.15,2013-04-10 12:55:00,
2013-04-10 09:00:00,66.9,59.8,30.05,West,264,1.0,6.0,78,0.00,,,0.00,107,Wunderground v.1.15,2013-04-10 13:00:00,
2013-04-10 09:05:00,67.6,60.1,30.05,West,263,1.0,6.0,77,0.00,,,0.00,102,Wunderground v.1.15,2013-04-10 13:05:00,
2013-04-10 09:10:00,67.9,60.1,30.05,SW,232,1.0,6.0,76,0.00,,,0.00,141,Wunderground v.1.15,2013-04-10 13:10:00,
2013-04-10 09:15:00,68.0,60.2,30.06,WSW,243,1.0,6.0,76,0.00,,,0.00,58,Wunderground v.1.15,2013-04-10 13:15:00,
2013-04-10 09:25:00,68.7,60.1,30.05,West,271,2.0,6.0,74,0.00,,,0.00,176,Wunderground v.1.15,2013-04-10 13:25:00,
2013-04-10 09:30:00,69.0,60.4,30.05,West,277,3.0,3.0,74,0.00,,,0.00,127,Wunderground v.1.15,2013-04-10 13:30:00,
2013-04-10 09:35:00,69.2,60.2,30.06,WSW,254,2.0,4.0,73,0.00,,,0.00,100,Wunderground v.1.15,2013-04-10 13:35:00,
2013-04-10 09:40:00,69.4,60.4,30.06,WSW,250,1.0,1.0,73,0.00,,,0.00,88,Wunderground v.1.15,2013-04-10 13:40:00,
2013-04-10 09:45:00,69.5,60.5,30.06,SW,224,1.0,5.0,73,0.00,,,0.00,79,Wunderground v.1.15,2013-04-10 13:45:00,
2013-04-10 09:50:00,69.7,60.7,30.06,WSW,251,3.0,6.0,73,0.00,,,0.00,125,Wunderground v.1.15,2013-04-10 13:50:00,
2013-04-10 09:55:00,70.1,60.7,30.06,South,188,3.0,6.0,72,0.00,,,0.00,255,Wunderground v.1.15,2013-04-10 13:55:00,
2013-04-10 10:05:00,70.7,60.8,30.05,WSW,254,4.0,6.0,71,0.00,,,0.00,186,Wunderground v.1.15,2013-04-10 14:05:00,
2013-04-10 10:10:00,71.2,60.9,30.05,SSW,200,3.0,3.0,70,0.00,,,0.00,174,Wunderground v.1.15,2013-04-10 14:10:00,
2013-04-10 10:15:00,71.3,61.0,30.05,SW,236,1.0,5.0,70,0.00,,,0.00,376,Wunderground v.1.15,2013-04-10 14:15:00,
2013-04-10 10:20:00,71.6,60.9,30.05,SW,232,1.0,1.0,69,0.00,,,0.00,485,Wunderground v.1.15,2013-04-10 14:20:00,
2013-04-10 10:25:00,71.9,61.2,30.05,South,171,1.0,6.0,69,0.00,,,0.00,501,Wunderground v.1.15,2013-04-10 14:25:00,
2013-04-10 10:30:00,72.4,61.2,30.05,SW,219,0.0,6.0,68,0.00,,,0.00,411,Wunderground v.1.15,2013-04-10 14:30:00,
2013-04-10 10:40:00,73.2,61.6,30.05,South,188,1.0,1.0,67,0.00,,,0.00,332,Wunderground v.1.15,2013-04-10 14:40:00,
2013-04-10 10:50:00,73.6,61.5,30.05,South,188,1.0,6.0,66,0.00,,,0.00,527,Wunderground v.1.15,2013-04-10 14:50:00,
2013-04-10 10:55:00,74.2,61.7,30.05,South,186,1.0,6.0,65,0.00,,,0.00,698,Wunderground v.1.15,2013-04-10 14:55:00,
2013-04-10 11:00:00,74.6,61.6,30.06,SW,232,1.0,6.0,64,0.00,,,0.00,710,Wunderground v.1.15,2013-04-10 15:00:00,
2013-04-10 11:05:00,74.2,61.7,30.05,SSW,209,0.0,6.0,65,0.00,,,0.00,721,Wunderground v.1.15,2013-04-10 15:05:00,
2013-04-10 11:10:00,74.8,61.8,30.05,WSW,244,0.0,6.0,64,0.00,,,0.00,731,Wunderground v.1.15,2013-04-10 15:10:00,
2013-04-10 11:15:00,75.1,62.1,30.05,SSW,211,0.0,6.0,64,0.00,,,0.00,744,Wunderground v.1.15,2013-04-10 15:15:00,
2013-04-10 11:20:00,75.2,61.7,30.05,SSW,209,0.0,6.0,63,0.00,,,0.00,754,Wunderground v.1.15,2013-04-10 15:20:00,
2013-04-10 11:30:00,75.6,61.7,30.05,WSW,243,0.0,6.0,62,0.00,,,0.00,775,Wunderground v.1.15,2013-04-10 15:30:00,
2013-04-10 11:35:00,76.1,62.6,30.05,South,182,1.0,6.0,63,0.00,,,0.00,784,Wunderground v.1.15,2013-04-10 15:35:00,
2013-04-10 11:40:00,77.8,62.3,30.05,SW,233,1.0,1.0,59,0.00,,,0.00,793,Wunderground v.1.15,2013-04-10 15:40:00,
2013-04-10 11:45:00,76.7,61.8,30.04,NW,311,0.0,6.0,60,0.00,,,0.00,802,Wunderground v.1.15,2013-04-10 15:45:00,
2013-04-10 11:50:00,77.6,62.6,30.04,NW,311,0.0,6.0,60,0.00,,,0.00,810,Wunderground v.1.15,2013-04-10 15:50:00,
2013-04-10 11:55:00,79.2,62.1,30.04,SSW,205,0.0,6.0,56,0.00,,,0.00,817,Wunderground v.1.15,2013-04-10 15:55:00,
2013-04-10 12:00:00,78.1,62.1,30.04,West,269,0.0,6.0,58,0.00,,,0.00,828,Wunderground v.1.15,2013-04-10 16:00:00,
2013-04-10 12:05:00,78.2,62.2,30.03,SW,221,0.0,6.0,58,0.00,,,0.00,837,Wunderground v.1.15,2013-04-10 16:05:00,
2013-04-10 12:10:00,78.9,61.4,30.03,South,176,2.0,2.0,55,0.00,,,0.00,844,Wunderground v.1.15,2013-04-10 16:10:00,
2013-04-10 12:20:00,79.9,62.3,30.02,South,176,0.0,6.0,55,0.00,,,0.00,851,Wunderground v.1.15,2013-04-10 16:20:00,
2013-04-10 12:25:00,79.9,60.7,30.02,WSW,244,0.0,6.0,52,0.00,,,0.00,860,Wunderground v.1.15,2013-04-10 16:25:00,
2013-04-10 12:30:00,79.1,60.5,30.02,SSW,207,2.0,2.0,53,0.00,,,0.00,868,Wunderground v.1.15,2013-04-10 16:30:00,
2013-04-10 12:35:00,80.1,60.3,30.02,West,275,2.0,6.0,51,0.00,,,0.00,867,Wunderground v.1.15,2013-04-10 16:35:00,
2013-04-10 12:45:00,80.0,60.8,30.02,SW,225,1.0,7.0,52,0.00,,,0.00,877,Wunderground v.1.15,2013-04-10 16:45:00,
2013-04-10 12:50:00,79.9,60.7,30.02,WSW,251,1.0,6.0,52,0.00,,,0.00,874,Wunderground v.1.15,2013-04-10 16:50:00,
2013-04-10 12:55:00,78.5,59.9,30.02,SW,236,2.0,6.0,53,0.00,,,0.00,877,Wunderground v.1.15,2013-04-10 16:55:00,
2013-04-10 13:00:00,78.5,60.5,30.02,WSW,244,2.0,6.0,54,0.00,,,0.00,877,Wunderground v.1.15,2013-04-10 17:00:00,
2013-04-10 13:05:00,78.9,61.4,30.01,SW,217,2.0,6.0,55,0.00,,,0.00,882,Wunderground v.1.15,2013-04-10 17:05:00,
2013-04-10 13:10:00,82.5,62.5,30.01,South,183,2.0,6.0,51,0.00,,,0.00,884,Wunderground v.1.15,2013-04-10 17:10:00,
2013-04-10 13:15:00,81.5,61.1,30.01,SW,215,4.0,6.0,50,0.00,,,0.00,882,Wunderground v.1.15,2013-04-10 17:15:00,
2013-04-10 13:20:00,80.6,60.8,30.01,SSW,211,3.0,7.0,51,0.00,,,0.00,884,Wunderground v.1.15,2013-04-10 17:20:00,
2013-04-10 13:30:00,83.2,61.5,30.01,SSW,204,1.0,6.0,48,0.00,,,0.00,884,Wunderground v.1.15,2013-04-10 17:30:00,
2013-04-10 13:35:00,81.8,61.3,30.00,SSW,200,3.0,7.0,50,0.00,,,0.00,879,Wunderground v.1.15,2013-04-10 17:35:00,
2013-04-10 13:40:00,81.9,60.9,30.00,SW,233,5.0,6.0,49,0.00,,,0.00,879,Wunderground v.1.15,2013-04-10 17:40:00,
2013-04-10 13:45:00,80.8,59.9,30.00,SW,220,5.0,6.0,49,0.00,,,0.00,881,Wunderground v.1.15,2013-04-10 17:45:00,
2013-04-10 13:50:00,81.4,60.4,30.00,SW,222,5.0,10.0,49,0.00,,,0.00,877,Wunderground v.1.15,2013-04-10 17:50:00,
2013-04-10 13:55:00,82.1,59.9,30.00,SW,219,6.0,10.0,47,0.00,,,0.00,863,Wunderground v.1.15,2013-04-10 17:55:00,
2013-04-10 14:00:00,82.3,60.6,30.00,SW,221,3.0,6.0,48,0.00,,,0.00,872,Wunderground v.1.15,2013-04-10 18:00:00,
2013-04-10 14:05:00,82.0,59.8,29.99,SW,234,4.0,7.0,47,0.00,,,0.00,868,Wunderground v.1.15,2013-04-10 18:05:00,
2013-04-10 14:10:00,81.2,59.6,29.99,West,277,5.0,5.0,48,0.00,,,0.00,865,Wunderground v.1.15,2013-04-10 18:10:00,
2013-04-10 14:20:00,82.0,59.2,29.99,WSW,245,4.0,6.0,46,0.00,,,0.00,849,Wunderground v.1.15,2013-04-10 18:20:00,
2013-04-10 14:25:00,81.4,59.8,29.98,SW,227,4.0,6.0,48,0.00,,,0.00,851,Wunderground v.1.15,2013-04-10 18:25:00,
2013-04-10 14:30:00,81.8,60.2,29.98,South,183,3.0,3.0,48,0.00,,,0.00,849,Wunderground v.1.15,2013-04-10 18:30:00,
2013-04-10 14:35:00,82.8,60.5,29.98,SSW,209,4.0,4.0,47,0.00,,,0.00,835,Wunderground v.1.15,2013-04-10 18:35:00,
2013-04-10 14:40:00,82.2,60.0,29.98,SW,232,5.0,5.0,47,0.00,,,0.00,817,Wunderground v.1.15,2013-04-10 18:40:00,
2013-04-10 14:45:00,82.5,60.2,29.98,South,188,4.0,6.0,47,0.00,,,0.00,819,Wunderground v.1.15,2013-04-10 18:45:00,
2013-04-10 14:50:00,82.2,60.0,29.97,SW,225,6.0,7.0,47,0.00,,,0.00,816,Wunderground v.1.15,2013-04-10 18:50:00,
2013-04-10 14:55:00,81.2,59.6,29.97,West,262,8.0,8.0,48,0.00,,,0.00,805,Wunderground v.1.15,2013-04-10 18:55:00,
2013-04-10 15:00:00,81.6,60.6,29.96,SW,233,7.0,7.0,49,0.00,,,0.00,793,Wunderground v.1.15,2013-04-10 19:00:00,
2013-04-10 15:10:00,82.6,59.7,29.96,SSW,207,9.0,9.0,46,0.00,,,0.00,779,Wunderground v.1.15,2013-04-10 19:10:00,
2013-04-10 15:15:00,81.9,59.7,29.96,SW,220,9.0,10.0,47,0.00,,,0.00,768,Wunderground v.1.15,2013-04-10 19:15:00,
2013-04-10 15:20:00,82.7,59.8,29.95,WSW,244,8.0,10.0,46,0.00,,,0.00,761,Wunderground v.1.15,2013-04-10 19:20:00,
2013-04-10 15:25:00,82.8,59.9,29.94,West,272,8.0,10.0,46,0.00,,,0.00,758,Wunderground v.1.15,2013-04-10 19:25:00,
2013-04-10 15:30:00,81.8,59.6,29.94,SSW,201,8.0,15.0,47,0.00,,,0.00,742,Wunderground v.1.15,2013-04-10 19:30:00,
2013-04-10 15:40:00,83.1,59.6,29.94,SSE,167,11.0,11.0,45,0.00,,,0.00,726,Wunderground v.1.15,2013-04-10 19:40:00,
2013-04-10 15:45:00,82.2,59.4,29.94,SW,234,9.0,11.0,46,0.00,,,0.00,714,Wunderground v.1.15,2013-04-10 19:45:00,
2013-04-10 15:50:00,83.6,60.0,29.94,SSW,195,9.0,9.0,45,0.00,,,0.00,705,Wunderground v.1.15,2013-04-10 19:50:00,
2013-04-10 15:55:00,85.0,60.0,29.94,SW,219,9.0,9.0,43,0.00,,,0.00,689,Wunderground v.1.15,2013-04-10 19:55:00,
2013-04-10 16:00:00,84.0,59.7,29.94,WSW,238,7.0,7.0,44,0.00,,,0.00,682,Wunderground v.1.15,2013-04-10 20:00:00,
2013-04-10 16:05:00,83.0,58.8,29.93,WSW,246,7.0,7.0,44,0.00,,,0.00,663,Wunderground v.1.15,2013-04-10 20:05:00,
2013-04-10 16:10:00,83.1,58.3,29.93,SW,215,8.0,9.0,43,0.00,,,0.00,656,Wunderground v.1.15,2013-04-10 20:10:00,
2013-04-10 16:20:00,83.6,59.4,29.92,South,183,8.0,8.0,44,0.00,,,0.00,619,Wunderground v.1.15,2013-04-10 20:20:00,
2013-04-10 16:30:00,83.3,59.7,29.92,SSW,213,8.0,8.0,45,0.00,,,0.00,601,Wunderground v.1.15,2013-04-10 20:30:00,
2013-04-10 16:35:00,82.1,59.3,29.92,SW,233,9.0,11.0,46,0.00,,,0.00,580,Wunderground v.1.15,2013-04-10 20:35:00,
2013-04-10 16:40:00,83.0,60.1,29.92,SSW,194,9.0,9.0,46,0.00,,,0.00,566,Wunderground v.1.15,2013-04-10 20:40:00,
2013-04-10 16:45:00,84.3,60.0,29.92,SW,218,9.0,9.0,44,0.00,,,0.00,552,Wunderground v.1.15,2013-04-10 20:45:00,
2013-04-10 16:50:00,83.6,59.4,29.92,SSW,209,8.0,8.0,44,0.00,,,0.00,533,Wunderground v.1.15,2013-04-10 20:50:00,
2013-04-10 17:00:00,83.1,59.6,29.92,SSW,211,8.0,8.0,45,0.00,,,0.00,506,Wunderground v.1.15,2013-04-10 21:00:00,
2013-04-10 17:05:00,82.9,59.4,29.91,SSW,213,8.0,8.0,45,0.00,,,0.00,492,Wunderground v.1.15,2013-04-10 21:05:00,
2013-04-10 17:15:00,83.3,59.7,29.91,SSW,207,10.0,10.0,45,0.00,,,0.00,462,Wunderground v.1.15,2013-04-10 21:15:00,
2013-04-10 17:20:00,82.5,59.6,29.91,SW,227,10.0,10.0,46,0.00,,,0.00,441,Wunderground v.1.15,2013-04-10 21:20:00,
2013-04-10 17:25:00,83.1,59.6,29.91,SSE,158,9.0,12.0,45,0.00,,,0.00,424,Wunderground v.1.15,2013-04-10 21:25:00,
2013-04-10 17:30:00,83.4,59.2,29.91,SSW,204,9.0,11.0,44,0.00,,,0.00,410,Wunderground v.1.15,2013-04-10 21:30:00,
2013-04-10 17:35:00,83.8,59.6,29.91,SSW,200,11.0,12.0,44,0.00,,,0.00,392,Wunderground v.1.15,2013-04-10 21:35:00,
2013-04-10 17:40:00,83.3,59.7,29.91,SW,223,9.0,9.0,45,0.00,,,0.00,373,Wunderground v.1.15,2013-04-10 21:40:00,
2013-04-10 17:45:00,82.1,59.3,29.91,South,189,6.0,9.0,46,0.00,,,0.00,357,Wunderground v.1.15,2013-04-10 21:45:00,
2013-04-10 17:50:00,82.8,59.3,29.90,SSW,211,4.0,10.0,45,0.00,,,0.00,341,Wunderground v.1.15,2013-04-10 21:50:00,
2013-04-10 18:00:00,83.1,58.9,29.91,SSW,210,9.0,9.0,44,0.00,,,0.00,308,Wunderground v.1.15,2013-04-10 22:00:00,
2013-04-10 18:05:00,82.3,58.8,29.91,South,189,8.0,9.0,45,0.00,,,0.00,292,Wunderground v.1.15,2013-04-10 22:05:00,
2013-04-10 18:15:00,82.8,59.3,29.91,SW,234,8.0,11.0,45,0.00,,,0.00,250,Wunderground v.1.15,2013-04-10 22:15:00,
2013-04-10 18:20:00,83.1,58.9,29.91,South,190,9.0,9.0,44,0.00,,,0.00,234,Wunderground v.1.15,2013-04-10 22:20:00,
2013-04-10 18:25:00,82.7,59.2,29.91,SSW,207,9.0,9.0,45,0.00,,,0.00,214,Wunderground v.1.15,2013-04-10 22:25:00,
2013-04-10 18:30:00,82.4,58.9,29.91,SSW,202,6.0,6.0,45,0.00,,,0.00,197,Wunderground v.1.15,2013-04-10 22:30:00,
2013-04-10 18:35:00,82.2,58.7,29.91,South,177,5.0,6.0,45,0.00,,,0.00,176,Wunderground v.1.15,2013-04-10 22:35:00,
2013-04-10 18:45:00,82.4,59.5,29.90,South,190,5.0,6.0,46,0.00,,,0.00,139,Wunderground v.1.15,2013-04-10 22:45:00,
2013-04-10 18:50:00,82.3,58.8,29.90,SSW,211,7.0,7.0,45,0.00,,,0.00,118,Wunderground v.1.15,2013-04-10 22:50:00,
2013-04-10 19:00:00,81.5,59.3,29.90,SSE,158,7.0,7.0,47,0.00,,,0.00,83,Wunderground v.1.15,2013-04-10 23:00:00,
2013-04-10 19:05:00,81.4,59.2,29.90,SSW,213,6.0,7.0,47,0.00,,,0.00,67,Wunderground v.1.15,2013-04-10 23:05:00,
2013-04-10 19:10:00,80.9,59.4,29.90,South,190,4.0,4.0,48,0.00,,,0.00,54,Wunderground v.1.15,2013-04-10 23:10:00,
2013-04-10 19:15:00,81.1,59.6,29.89,South,173,4.0,6.0,48,0.00,,,0.00,42,Wunderground v.1.15,2013-04-10 23:15:00,
2013-04-10 19:20:00,80.7,59.2,29.89,South,185,4.0,6.0,48,0.00,,,0.00,32,Wunderground v.1.15,2013-04-10 23:20:00,
2013-04-10 19:25:00,80.7,59.2,29.89,SSW,209,5.0,6.0,48,0.00,,,0.00,21,Wunderground v.1.15,2013-04-10 23:25:00,
2013-04-10 19:30:00,80.3,59.4,29.89,SSW,202,4.0,4.0,49,0.00,,,0.00,14,Wunderground v.1.15,2013-04-10 23:30:00,
2013-04-10 19:35:00,80.0,59.1,29.89,SSW,202,2.0,6.0,49,0.00,,,0.00,9,Wunderground v.1.15,2013-04-10 23:35:00,
2013-04-10 19:40:00,79.4,59.1,29.89,South,180,1.0,6.0,50,0.00,,,0.00,5,Wunderground v.1.15,2013-04-10 23:40:00,
2013-04-10 19:45:00,79.1,58.9,29.89,South,178,1.0,6.0,50,0.00,,,0.00,0,Wunderground v.1.15,2013-04-10 23:45:00,
2013-04-10 19:55:00,79.5,59.2,29.89,South,173,1.0,6.0,50,0.00,,,0.00,0,Wunderground v.1.15,2013-04-10 23:55:00,
2013-04-10 20:00:00,79.6,59.3,29.90,South,173,1.0,1.0,50,0.00,,,0.00,0,Wunderground v.1.15,2013-04-11 00:00:00,
2013-04-10 20:10:00,78.0,59.5,29.90,South,173,0.0,6.0,53,0.00,,,0.00,0,Wunderground v.1.15,2013-04-11 00:10:00,
2013-04-10 20:15:00,76.5,60.1,29.90,South,173,0.0,6.0,57,0.00,,,0.00,0,Wunderground v.1.15,2013-04-11 00:15:00,
2013-04-10 20:20:00,75.5,59.7,29.90,South,173,0.0,6.0,58,0.00,,,0.00,0,Wunderground v.1.15,2013-04-11 00:20:00,
2013-04-10 20:25:00,74.6,59.8,29.90,South,173,0.0,6.0,60,0.00,,,0.00,0,Wunderground v.1.15,2013-04-11 00:25:00,
2013-04-10 20:30:00,73.8,59.0,29.90,South,178,0.0,6.0,60,0.00,,,0.00,0,Wunderground v.1.15,2013-04-11 00:30:00,
2013-04-10 20:35:00,74.0,59.2,29.90,South,183,0.0,6.0,60,0.00,,,0.00,0,Wunderground v.1.15,2013-04-11 00:35:00,
2013-04-10 20:40:00,75.2,59.9,29.91,SSE,161,0.0,6.0,59,0.00,,,0.00,0,Wunderground v.1.15,2013-04-11 00:40:00,
2013-04-10 20:45:00,76.3,59.9,29.91,SE,128,0.0,6.0,57,0.00,,,0.00,0,Wunderground v.1.15,2013-04-11 00:45:00,
2013-04-10 20:50:00,76.8,59.9,29.91,South,178,0.0,6.0,56,0.00,,,0.00,0,Wunderground v.1.15,2013-04-11 00:50:00,
2013-04-10 21:00:00,77.3,60.4,29.91,South,183,0.0,6.0,56,0.00,,,0.00,0,Wunderground v.1.15,2013-04-11 01:00:00,
2013-04-10 21:10:00,76.9,60.0,29.91,SSE,153,0.0,6.0,56,0.00,,,0.00,0,Wunderground v.1.15,2013-04-11 01:10:00,
2013-04-10 21:15:00,76.9,60.5,29.91,South,169,0.0,6.0,57,0.00,,,0.00,0,Wunderground v.1.15,2013-04-11 01:15:00,
2013-04-10 21:20:00,76.9,60.5,29.91,South,182,0.0,6.0,57,0.00,,,0.00,0,Wunderground v.1.15,2013-04-11 01:20:00,
2013-04-10 21:25:00,76.6,60.7,29.91,SE,135,1.0,6.0,58,0.00,,,0.00,0,Wunderground v.1.15,2013-04-11 01:25:00,
2013-04-10 21:30:00,76.5,60.6,29.91,South,171,1.0,1.0,58,0.00,,,0.00,0,Wunderground v.1.15,2013-04-11 01:30:00,
2013-04-10 21:35:00,76.3,60.9,29.91,South,171,0.0,6.0,59,0.00,,,0.00,0,Wunderground v.1.15,2013-04-11 01:35:00,
2013-04-10 21:40:00,76.1,60.7,29.91,SSE,165,0.0,6.0,59,0.00,,,0.00,0,Wunderground v.1.15,2013-04-11 01:40:00,
2013-04-10 21:45:00,75.7,60.8,29.91,South,184,1.0,6.0,60,0.00,,,0.00,0,Wunderground v.1.15,2013-04-11 01:45:00,
2013-04-10 21:50:00,75.5,60.6,29.91,South,176,2.0,6.0,60,0.00,,,0.00,0,Wunderground v.1.15,2013-04-11 01:50:00,
2013-04-10 22:00:00,75.1,60.7,29.91,SSE,165,2.0,6.0,61,0.00,,,0.00,0,Wunderground v.1.15,2013-04-11 02:00:00,
2013-04-10 22:05:00,75.0,61.1,29.91,SSE,159,1.0,6.0,62,0.00,,,0.00,0,Wunderground v.1.15,2013-04-11 02:05:00,
2013-04-10 22:10:00,75.0,61.1,29.91,South,191,1.0,1.0,62,0.00,,,0.00,0,Wunderground v.1.15,2013-04-11 02:10:00,
2013-04-10 22:15:00,75.0,61.1,29.91,South,180,1.0,3.0,62,0.00,,,0.00,0,Wunderground v.1.15,2013-04-11 02:15:00,
2013-04-10 22:20:00,75.1,61.2,29.91,South,172,0.0,6.0,62,0.00,,,0.00,0,Wunderground v.1.15,2013-04-11 02:20:00,
2013-04-10 22:25:00,75.2,61.3,29.91,South,177,0.0,6.0,62,0.00,,,0.00,0,Wunderground v.1.15,2013-04-11 02:25:00,
2013-04-10 22:30:00,75.1,61.2,29.91,South,175,1.0,1.0,62,0.00,,,0.00,0,Wunderground v.1.15,2013-04-11 02:30:00,
2013-04-10 22:35:00,74.8,60.9,29.91,South,182,1.0,6.0,62,0.00,,,0.00,0,Wunderground v.1.15,2013-04-11 02:35:00,
2013-04-10 22:40:00,74.4,61.0,29.91,South,171,0.0,6.0,63,0.00,,,0.00,0,Wunderground v.1.15,2013-04-11 02:40:00,
2013-04-10 22:45:00,74.0,61.0,29.92,South,188,1.0,6.0,64,0.00,,,0.00,0,Wunderground v.1.15,2013-04-11 02:45:00,
2013-04-10 22:50:00,73.7,61.2,29.92,SSW,197,1.0,1.0,65,0.00,,,0.00,0,Wunderground v.1.15,2013-04-11 02:50:00,
2013-04-10 23:00:00,73.1,60.6,29.92,SSW,198,0.0,6.0,65,0.00,,,0.00,0,Wunderground v.1.15,2013-04-11 03:00:00,
2013-04-10 23:05:00,72.7,60.7,29.92,SW,225,0.0,6.0,66,0.00,,,0.00,0,Wunderground v.1.15,2013-04-11 03:05:00,
2013-04-10 23:10:00,72.7,61.1,29.92,South,190,1.0,1.0,67,0.00,,,0.00,0,Wunderground v.1.15,2013-04-11 03:10:00,
2013-04-10 23:20:00,72.7,60.7,29.92,SSW,213,1.0,1.0,66,0.00,,,0.00,0,Wunderground v.1.15,2013-04-11 03:20:00,
2013-04-10 23:25:00,72.6,61.0,29.92,South,177,1.0,6.0,67,0.00,,,0.00,0,Wunderground v.1.15,2013-04-11 03:25:00,
2013-04-10 23:30:00,72.5,60.9,29.92,South,191,1.0,1.0,67,0.00,,,0.00,0,Wunderground v.1.15,2013-04-11 03:30:00,
2013-04-10 23:35:00,72.4,60.8,29.92,SSW,198,1.0,6.0,67,0.00,,,0.00,0,Wunderground v.1.15,2013-04-11 03:35:00,
2013-04-10 23:40:00,72.2,61.0,29.92,SSW,197,1.0,6.0,68,0.00,,,0.00,0,Wunderground v.1.15,2013-04-11 03:40:00,
2013-04-10 23:50:00,72.1,61.0,29.92,South,185,2.0,2.0,68,0.00,,,0.00,0,Wunderground v.1.15,2013-04-11 03:50:00,
2013-04-10 23:55:00,72.0,60.9,29.92,South,184,1.0,6.0,68,0.00,,,0.00,0,Wunderground v.1.15,2013-04-11 03:55:00,